When you browse on this site, cookies collect data to enhance your experience and personalize the content and advertising you see.
Visit our Privacy Policy to learn more. By continuing to use the site, you agree to this use of cookies and data.

Hourly Weather Chelmsford

Today, 27 September, Sunday

Time Temperature Precipitation Wind Pressure Humidity
00:00 +10°C° 0 mm 8 mps 755 mmHg 74%
01:00 +8°C° 0 mm 9 mps 754 mmHg 74%
02:00 +8°C° 0 mm 9 mps 754 mmHg 74%
03:00 +8°C° 0 mm 10 mps 753 mmHg 75%
04:00 +9°C° 0 mm 10 mps 753 mmHg 75%
05:00 +9°C° 0 mm 10 mps 753 mmHg 76%
06:00 +9°C° 0 mm 10 mps 754 mmHg 77%
07:00 +9°C° 0 mm 10 mps 754 mmHg 77%
08:00 +11°C° 0 mm 10 mps 754 mmHg 77%
09:00 +11°C° 0 mm 10 mps 754 mmHg 77%
10:00 +11°C° 0 mm 10 mps 754 mmHg 77%
11:00 +12°C° 0 mm 10 mps 754 mmHg 77%
12:00 +12°C° 0 mm 9 mps 754 mmHg 77%
13:00 +12°C° 0 mm 9 mps 754 mmHg 77%
14:00 +12°C° 0 mm 9 mps 754 mmHg 77%
15:00 +12°C° 0 mm 9 mps 754 mmHg 78%
16:00 +12°C° 0 mm 8 mps 754 mmHg 79%
17:00 +11°C° 0 mm 8 mps 754 mmHg 80%
18:00 +11°C° 0 mm 8 mps 755 mmHg 82%
19:00 +11°C° 0 mm 7 mps 755 mmHg 82%
20:00 +11°C° 0 mm 7 mps 755 mmHg 82%
21:00 +11°C° 0 mm 6 mps 755 mmHg 82%
22:00 +11°C° 0 mm 6 mps 755 mmHg 83%
23:00 +10°C° 0 mm 6 mps 755 mmHg 83%

Tomorrow, 28 September, Monday

Time Temperature Precipitation Wind Pressure Humidity
00:00 +10°C° 0 mm 6 mps 756 mmHg 83%
01:00 +10°C° 0.1 mm 6 mps 755 mmHg 83%
02:00 +10°C° 0.1 mm 6 mps 755 mmHg 84%
03:00 +10°C° 0.1 mm 5 mps 755 mmHg 84%
04:00 +9°C° 0 mm 5 mps 755 mmHg 83%
05:00 +9°C° 0 mm 5 mps 755 mmHg 81%
06:00 +9°C° 0 mm 5 mps 755 mmHg 80%
07:00 +10°C° 0 mm 5 mps 755 mmHg 77%
08:00 +10°C° 0 mm 5 mps 755 mmHg 74%
09:00 +12°C° 0 mm 4 mps 755 mmHg 71%
10:00 +13°C° 0 mm 4 mps 755 mmHg 66%
11:00 +14°C° 0 mm 4 mps 755 mmHg 60%
12:00 +17°C° 0 mm 4 mps 755 mmHg 55%
13:00 +17°C° 0 mm 4 mps 755 mmHg 50%
14:00 +17°C° 0 mm 4 mps 755 mmHg 45%
15:00 +18°C° 0 mm 4 mps 755 mmHg 40%
16:00 +16°C° 0 mm 3 mps 755 mmHg 46%
17:00 +14°C° 0 mm 3 mps 755 mmHg 52%
18:00 +14°C° 0 mm 2 mps 755 mmHg 57%
19:00 +14°C° 0 mm 2 mps 756 mmHg 63%
20:00 +14°C° 0 mm 2 mps 756 mmHg 69%
21:00 +14°C° 0 mm 2 mps 756 mmHg 75%
22:00 +14°C° 0 mm 2 mps 756 mmHg 78%
23:00 +14°C° 0 mm 2 mps 756 mmHg 82%

Day after tomorrow, 29 September, Tuesday

Time Temperature Precipitation Wind Pressure Humidity
00:00 +14°C° 0 mm 2 mps 757 mmHg 86%
01:00 +14°C° 0 mm 2 mps 757 mmHg 88%
02:00 +14°C° 0 mm 2 mps 757 mmHg 91%
03:00 +14°C° 0 mm 2 mps 757 mmHg 93%
04:00 +14°C° 0 mm 2 mps 757 mmHg 93%
05:00 +14°C° 0 mm 2 mps 757 mmHg 94%
06:00 +13°C° 0 mm 2 mps 757 mmHg 94%
07:00 +14°C° 0 mm 2 mps 757 mmHg 90%
08:00 +15°C° 0 mm 1 mps 757 mmHg 85%
09:00 +16°C° 0 mm 1 mps 758 mmHg 80%
10:00 +18°C° 0 mm 1 mps 758 mmHg 75%
11:00 +18°C° 0 mm 2 mps 758 mmHg 71%
12:00 +18°C° 0 mm 2 mps 758 mmHg 66%
13:00 +18°C° 0 mm 2 mps 757 mmHg 62%
14:00 +19°C° 0 mm 2 mps 757 mmHg 59%
15:00 +19°C° 0 mm 3 mps 757 mmHg 55%
16:00 +18°C° 0 mm 3 mps 757 mmHg 59%
17:00 +17°C° 0 mm 3 mps 757 mmHg 62%
18:00 +14°C° 0 mm 3 mps 757 mmHg 65%
19:00 +14°C° 0 mm 3 mps 757 mmHg 63%
20:00 +15°C° 0 mm 2 mps 757 mmHg 62%
21:00 +14°C° 0 mm 2 mps 757 mmHg 61%
22:00 +14°C° 0 mm 2 mps 757 mmHg 61%
23:00 +14°C° 0 mm 2 mps 757 mmHg 61%

30 September, Wednesday

Time Temperature Precipitation Wind Pressure Humidity
00:00 +14°C° 0 mm 2 mps 756 mmHg 61%
01:00 +14°C° 0 mm 2 mps 756 mmHg 65%
02:00 +13°C° 0 mm 2 mps 756 mmHg 68%
03:00 +12°C° 0 mm 2 mps 756 mmHg 71%
04:00 +12°C° 0 mm 2 mps 755 mmHg 73%
05:00 +12°C° 0 mm 2 mps 755 mmHg 75%
06:00 +12°C° 0 mm 2 mps 755 mmHg 77%
07:00 +12°C° 0 mm 3 mps 754 mmHg 74%
08:00 +13°C° 0 mm 3 mps 754 mmHg 71%
09:00 +14°C° 0 mm 4 mps 754 mmHg 68%
10:00 +14°C° 0 mm 4 mps 753 mmHg 70%
11:00 +15°C° 0 mm 5 mps 753 mmHg 73%
12:00 +15°C° 0 mm 6 mps 752 mmHg 76%
13:00 +15°C° 0.3 mm 6 mps 751 mmHg 76%
14:00 +16°C° 0.3 mm 7 mps 751 mmHg 75%
15:00 +16°C° 0.3 mm 7 mps 750 mmHg 75%
16:00 +15°C° 0.1 mm 7 mps 749 mmHg 77%
17:00 +15°C° 0.1 mm 6 mps 749 mmHg 79%
18:00 +14°C° 0.1 mm 6 mps 748 mmHg 81%
19:00 +14°C° 0.6 mm 6 mps 748 mmHg 84%
20:00 +14°C° 0.6 mm 6 mps 747 mmHg 87%
21:00 +14°C° 0.6 mm 6 mps 747 mmHg 90%
22:00 +14°C° 0.7 mm 5 mps 746 mmHg 89%
23:00 +13°C° 0.7 mm 4 mps 745 mmHg 88%

1 October, Thursday

Time Temperature Precipitation Wind Pressure Humidity
00:00 +13°C° 0.7 mm 3 mps 745 mmHg 87%
01:00 +12°C° 0.1 mm 3 mps 744 mmHg 88%
02:00 +13°C° 0.1 mm 2 mps 744 mmHg 89%
03:00 +13°C° 0.1 mm 1 mps 743 mmHg 90%
04:00 +12°C° 0.1 mm 2 mps 743 mmHg 89%
05:00 +11°C° 0.1 mm 3 mps 742 mmHg 88%
06:00 +11°C° 0.1 mm 4 mps 742 mmHg 87%
07:00 +10°C° 0.3 mm 5 mps 742 mmHg 85%
08:00 +10°C° 0.3 mm 6 mps 741 mmHg 82%
09:00 +10°C° 0.3 mm 6 mps 741 mmHg 80%
10:00 +10°C° 0.1 mm 6 mps 741 mmHg 74%
11:00 +11°C° 0.1 mm 7 mps 742 mmHg 68%
12:00 +12°C° 0.1 mm 7 mps 742 mmHg 63%
13:00 +12°C° 0 mm 7 mps 742 mmHg 59%
14:00 +12°C° 0 mm 7 mps 743 mmHg 56%
15:00 +12°C° 0 mm 7 mps 743 mmHg 53%
16:00 +11°C° 0 mm 6 mps 743 mmHg 56%
17:00 +10°C° 0 mm 5 mps 743 mmHg 60%
18:00 +10°C° 0 mm 4 mps 743 mmHg 63%
19:00 +10°C° 0 mm 3 mps 743 mmHg 64%
20:00 +9°C° 0 mm 2 mps 742 mmHg 66%
21:00 +9°C° 0 mm 2 mps 742 mmHg 67%
22:00 +10°C° 0 mm 1 mps 741 mmHg 67%
23:00 +10°C° 0 mm 1 mps 741 mmHg 68%

2 October, Friday

Time Temperature Precipitation Wind Pressure Humidity
00:00 +10°C° 0 mm 1 mps 740 mmHg 69%
01:00 +10°C° 0.2 mm 1 mps 739 mmHg 70%
02:00 +10°C° 0.2 mm 1 mps 739 mmHg 71%
03:00 +10°C° 0.2 mm 1 mps 738 mmHg 73%
04:00 +10°C° 0.1 mm 1 mps 738 mmHg 75%
05:00 +9°C° 0.1 mm 1 mps 738 mmHg 77%
06:00 +9°C° 0.1 mm 1 mps 737 mmHg 79%
07:00 +10°C° 0.2 mm 1 mps 737 mmHg 75%
08:00 +10°C° 0.2 mm 2 mps 737 mmHg 71%
09:00 +12°C° 0.2 mm 2 mps 737 mmHg 68%
10:00 +13°C° 0.4 mm 2 mps 737 mmHg 62%
11:00 +13°C° 0.4 mm 2 mps 737 mmHg 57%
12:00 +13°C° 0.4 mm 3 mps 737 mmHg 52%
13:00 +15°C° 0.1 mm 2 mps 737 mmHg 50%
14:00 +15°C° 0.1 mm 2 mps 737 mmHg 48%
15:00 +15°C° 0.1 mm 2 mps 737 mmHg 46%
16:00 +14°C° 0 mm 2 mps 737 mmHg 52%
17:00 +13°C° 0 mm 2 mps 736 mmHg 58%
18:00 +12°C° 0 mm 2 mps 736 mmHg 64%
19:00 +12°C° 0 mm 2 mps 736 mmHg 67%
20:00 +10°C° 0 mm 2 mps 736 mmHg 70%
21:00 +10°C° 0 mm 3 mps 736 mmHg 73%
22:00 +10°C° 0.2 mm 3 mps 735 mmHg 76%
23:00 +10°C° 0.2 mm 4 mps 735 mmHg 79%
Show more